GFSCGP_925_rhum_108.txt.gz
RH
22 24 26 22 21 19 17 20 20 17 14 17 19 18 16 14 14 14 14 14 15 24 35 42 50 53 56 56 60 63 65 66 62 35 42 54 77 78 64 71 76 79 90 99
19 28 16 15 18 21 21 24 23 19 19 23 22 20 16 14 14 14 14 17 33 37 39 42 46 50 56 57 60 64 62 66 69 61 38 44 52 62 67 69 77 88 95 98
27 21 22 22 25 30 28 27 24 25 20 20 21 20 13 14 15 17 28 38 41 45 45 43 43 47 51 54 59 62 64 66 70 77 69 56 53 56 61 71 82 92 98 98
31 23 28 28 28 25 28 19 24 24 23 22 21 19 15 14 17 26 39 42 47 48 45 44 46 49 52 54 60 63 66 70 70 75 76 67 53 51 55 61 68 84 96 98
34 24 23 31 25 24 25 18 22 23 25 25 22 24 12 15 20 29 43 54 52 51 50 48 47 49 51 56 61 66 72 74 74 80 84 88 71 58 53 56 64 82 93 96
26 20 24 23 20 21 21 25 25 26 26 34 21 19 10 17 17 36 54 56 55 53 50 48 49 50 50 57 66 71 75 77 80 87 90 92 93 78 63 56 66 82 96 100
26 25 25 28 29 26 26 30 36 37 39 28 21 19 14 28 43 49 62 56 53 51 51 49 47 49 53 60 68 74 80 86 87 93 96 96 96 92 75 64 61 75 90 100
34 44 30 26 28 27 28 28 31 32 25 22 30 31 29 52 59 64 60 58 57 54 50 47 48 51 57 64 72 82 91 93 92 97 98 100 100 99 83 76 73 71 77 94
40 38 31 28 26 27 29 39 31 44 35 41 21 21 54 59 70 63 60 56 58 55 49 49 50 54 64 69 77 91 98 98 97 99 100 100 100 100 88 72 79 79 75 85
56 55 42 36 27 23 30 25 45 46 44 28 14 16 21 60 61 60 68 62 58 52 50 50 49 55 66 72 81 93 99 100 99 99 100 100 100 100 80 76 83 84 81 86
48 47 44 37 34 30 26 25 27 34 33 33 24 16 56 77 73 70 56 57 56 54 53 50 50 56 64 70 80 89 98 100 100 100 100 100 100 96 75 83 89 86 87 91
46 34 35 31 33 32 26 27 22 39 28 33 34 31 58 65 61 59 58 60 55 55 55 53 52 59 67 70 79 91 99 98 100 100 100 100 100 100 92 99 96 97 99 100
40 35 35 32 38 37 35 36 38 55 47 44 44 33 54 64 61 62 59 58 59 62 58 54 55 61 71 78 85 91 96 99 100 100 99 100 100 100 100 100 99 100 100 100
36 32 26 19 32 33 46 38 36 45 58 38 30 29 28 32 32 42 59 64 64 65 62 59 60 63 74 82 90 93 96 99 99 100 100 100 100 100 100 100 100 100 100 100
41 44 34 30 27 34 30 31 34 37 39 52 40 47 40 31 31 65 66 63 64 70 71 69 65 67 75 83 94 96 96 99 99 100 100 100 100 100 98 99 100 100 100 100
56 57 54 43 35 33 34 28 28 30 34 35 32 44 26 34 65 68 72 70 73 78 83 76 69 71 79 84 93 98 98 99 99 99 100 100 100 100 100 100 100 100 100 100
52 54 53 46 32 33 39 32 29 26 33 38 65 53 42 68 68 70 73 74 80 85 88 86 85 84 89 93 96 96 98 98 99 99 99 100 99 100 100 100 99 100 100 100
46 55 43 45 59 52 69 51 57 59 63 75 73 68 68 82 78 76 81 84 88 92 88 92 91 88 95 98 97 97 99 98 98 98 98 100 100 100 100 100 99 98 96 99
40 41 53 59 47 36 51 87 89 90 84 87 85 90 80 79 75 89 89 91 93 95 95 95 97 97 98 99 99 98 96 96 97 98 99 99 100 100 100 100 100 99 96 97
50 43 52 60 66 60 91 75 68 92 86 88 89 81 89 91 91 91 93 90 94 95 96 96 98 98 95 99 99 96 95 95 97 98 99 100 100 100 99 100 99 99 99 99
79 72 77 67 73 61 78 88 88 92 93 86 90 92 93 91 91 93 95 94 95 96 96 97 98 95 97 98 96 94 94 96 99 100 100 100 100 99 99 99 98 99 98 98
68 74 76 79 85 81 82 73 89 91 90 91 92 95 91 92 93 93 94 93 93 93 93 88 78 87 92 91 89 90 98 100 100 100 100 100 100 100 100 99 99 99 98 98
89 92 89 89 90 93 90 93 94 93 89 91 87 92 90 92 93 93 93 92 92 91 74 63 63 67 75 81 81 81 78 97 97 98 98 100 100 100 99 100 99 97 98 98
89 82 84 81 90 91 92 90 89 88 89 90 90 90 91 92 92 92 92 90 87 72 64 58 58 60 62 65 71 64 54 61 77 84 88 92 92 96 98 93 95 96 96 93
76 78 77 87 87 83 83 88 89 92 90 91 92 92 92 91 92 89 86 83 74 66 64 61 60 61 63 66 71 70 60 50 47 52 58 66 73 78 88 99 99 98 100 99
71 87 85 89 86 77 86 88 89 89 92 91 87 91 93 88 87 84 86 82 74 72 67 65 62 64 68 76 83 84 82 78 71 65 66 71 68 69 71 72 82 94 95 93

GFSCGP_925_rhum_111.txt.gz
RH
23 26 27 22 20 20 20 20 20 15 12 15 17 15 12 11 10 11 11 11 11 12 16 28 36 40 45 47 49 53 55 56 57 53 41 29 43 45 49 55 57 60 66 70
24 27 21 18 18 19 19 22 21 15 13 14 15 16 13 12 11 11 11 12 12 17 25 31 35 39 44 45 49 51 50 54 56 56 54 50 39 38 41 51 51 57 66 74
26 19 14 19 20 18 18 21 20 19 16 14 18 18 13 10 10 9 10 13 23 28 31 33 35 38 42 43 49 50 51 53 56 61 58 56 52 47 50 47 50 53 63 72
31 23 21 23 26 20 25 18 19 20 20 24 12 18 12 12 13 13 18 26 31 35 35 34 35 38 41 42 49 53 56 58 57 61 61 63 65 57 37 40 43 52 61 72
38 33 32 31 30 24 25 19 19 19 22 20 17 18 15 11 12 18 27 35 38 39 39 38 37 38 39 42 48 55 61 61 63 67 70 71 69 65 62 51 50 47 56 73
26 22 26 21 18 18 18 20 20 20 20 29 20 19 16 11 11 18 41 40 42 41 39 38 37 38 39 44 51 58 62 64 70 74 79 82 84 84 76 71 58 53 52 65
29 29 26 21 30 24 21 27 38 36 36 35 17 16 16 20 32 31 42 41 42 40 39 39 38 39 42 48 53 58 64 71 76 80 83 86 90 90 89 82 74 66 58 67
59 75 29 24 26 30 28 28 41 73 50 39 19 24 27 43 45 43 41 41 37 38 38 37 38 41 44 50 55 64 72 78 80 84 88 93 97 97 95 90 80 70 66 64
53 47 34 25 22 23 24 37 24 41 42 40 32 26 45 52 49 51 48 40 40 38 37 39 39 42 46 51 58 70 80 84 86 92 96 99 100 99 99 99 94 81 69 69
42 73 35 28 24 22 23 26 49 35 45 39 24 22 23 67 69 56 50 44 40 37 37 40 40 44 49 54 60 72 81 87 92 97 99 100 100 100 100 100 100 91 74 71
35 40 42 33 32 29 30 30 29 28 38 51 47 32 52 73 58 53 43 41 39 38 39 41 42 46 51 58 64 72 82 90 96 100 100 100 99 100 100 100 100 93 80 73
42 48 61 43 25 26 25 28 28 46 39 28 25 22 45 50 44 43 42 40 37 39 41 42 44 49 54 61 68 74 84 94 100 100 100 100 99 100 100 100 94 78 76 76
50 55 56 37 29 29 30 27 26 28 31 39 48 32 46 41 40 45 36 38 40 44 46 45 45 51 59 66 73 80 85 97 100 97 100 100 100 100 100 100 98 96 83 78
32 35 33 31 25 29 37 25 25 32 59 38 27 21 30 33 27 23 32 44 44 48 53 53 52 55 62 69 77 85 90 97 99 99 100 100 100 100 100 100 100 100 100 99
35 44 30 26 21 20 26 27 28 29 35 45 32 36 27 23 23 35 48 45 47 57 58 61 63 65 69 76 82 87 95 99 100 98 99 100 99 100 98 100 100 100 100 100
41 51 45 38 26 25 28 23 20 20 24 24 21 28 21 22 36 48 56 56 60 65 67 67 71 84 88 90 88 92 95 99 99 99 99 100 100 100 99 100 100 99 100 100
46 45 48 48 25 27 33 25 21 19 18 21 44 32 41 50 77 60 61 63 70 74 77 81 90 93 95 96 98 97 99 99 98 99 99 100 100 100 100 100 97 98 100 100
42 43 42 44 44 48 41 39 44 43 36 34 49 53 63 78 72 71 73 75 79 86 88 92 93 95 98 99 98 98 99 99 98 98 98 98 99 99 99 100 98 99 99 100
32 35 47 52 41 31 46 83 83 85 61 71 72 70 73 70 70 82 75 82 92 96 95 96 98 98 98 99 98 99 98 98 96 98 99 99 99 99 99 98 98 99 99 98
35 34 44 47 55 56 94 63 53 70 79 71 65 66 76 81 90 91 90 92 94 96 97 97 98 98 97 99 98 95 95 95 97 99 99 99 100 100 100 100 99 99 98 98
64 55 56 54 66 80 68 79 70 92 92 77 74 88 78 89 91 95 95 95 96 97 98 98 92 88 90 91 87 94 96 98 99 99 100 100 100 99 99 100 99 99 99 98
58 63 69 68 88 84 73 68 84 93 86 83 94 97 88 92 94 94 94 94 94 94 91 68 61 72 76 76 75 75 90 96 96 96 98 100 100 100 100 100 99 99 99 98
83 87 92 83 88 85 76 90 91 93 88 89 88 92 89 91 93 94 94 94 94 86 54 47 48 52 57 60 56 62 63 76 85 86 88 92 94 98 93 93 93 94 89 92
76 62 78 74 83 85 82 78 90 89 89 90 91 90 92 92 93 93 93 92 81 55 47 44 46 49 54 55 57 55 48 46 54 61 66 72 76 87 88 87 88 92 94 92
67 60 64 77 77 80 75 81 85 91 90 91 93 93 92 90 92 91 91 87 60 53 49 47 49 52 57 61 64 64 63 58 54 56 58 60 62 64 77 93 91 88 94 93
70 86 83 91 75 76 85 82 85 88 92 89 86 92 94 89 91 90 89 71 64 59 52 48 48 49 58 69 74 79 76 75 72 68 68 72 70 68 67 67 89 98 84 88

GFSCGP_925_rhum_114.txt.gz
RH
23 32 36 27 24 22 22 24 24 19 15 17 17 15 13 12 12 12 13 12 12 12 19 30 36 39 42 43 47 50 52 53 56 55 56 52 45 36 51 57 60 60 60 68
24 34 27 24 22 22 22 24 23 18 15 17 16 15 12 11 12 11 12 12 12 12 24 32 34 39 42 42 48 49 49 51 54 56 61 60 58 58 57 49 54 55 59 64
34 26 19 19 19 20 20 22 24 21 15 15 17 18 15 14 13 11 11 11 15 20 32 33 33 37 39 42 48 50 53 56 57 57 60 58 60 60 57 48 43 53 56 61
30 21 22 22 23 20 24 20 22 21 23 33 19 30 19 14 11 11 12 24 33 34 32 33 34 36 38 42 47 52 57 59 57 63 69 70 71 69 66 65 64 61 54 48
37 30 27 32 32 26 29 23 30 30 39 41 28 29 22 15 12 13 22 38 39 37 36 36 36 36 37 42 49 54 58 59 62 68 73 77 78 78 80 78 77 73 69 59
31 24 26 30 32 29 20 22 28 33 34 51 32 28 25 18 17 16 40 39 38 39 37 36 35 37 39 44 50 55 58 62 68 74 77 80 81 82 85 84 84 82 76 72
31 28 23 29 35 24 25 31 44 75 58 51 24 27 22 56 40 48 47 41 40 37 38 36 36 38 42 47 51 56 63 69 75 77 80 83 85 87 89 90 89 86 82 78
37 49 26 25 33 34 30 35 73 73 62 49 62 55 50 51 55 49 40 37 36 35 35 36 37 40 44 48 53 60 68 76 80 82 87 90 92 93 94 95 95 93 88 82
43 44 29 27 26 27 37 43 37 63 65 60 45 50 69 49 49 46 41 40 37 34 34 35 36 41 46 51 57 66 73 78 84 89 92 96 97 96 97 98 98 98 97 93
30 46 49 34 23 22 25 21 46 83 91 59 34 29 69 67 59 50 47 42 38 33 33 38 39 44 49 55 60 68 76 80 88 93 96 98 98 99 100 100 100 100 100 99
27 47 60 44 39 35 31 29 30 35 41 77 52 43 65 75 70 66 44 40 36 37 38 40 42 46 52 58 63 72 79 85 92 98 99 100 100 100 100 100 100 100 100 100
53 55 68 52 29 24 25 30 32 50 45 41 42 42 49 60 50 40 38 37 36 38 40 42 45 50 55 62 69 76 84 92 97 100 100 100 100 100 100 100 100 100 100 100
53 80 65 49 45 29 32 28 27 35 41 49 58 44 42 38 34 38 38 38 38 41 45 48 51 55 62 70 77 83 90 96 99 100 100 100 100 100 100 100 100 100 100 90
46 53 63 73 48 31 40 31 24 34 56 47 41 34 27 45 33 28 40 43 41 49 51 56 59 63 73 79 80 90 98 99 100 99 99 100 100 100 100 100 99 97 100 100
38 50 43 36 28 25 23 22 26 27 30 45 45 43 33 25 34 40 42 43 47 56 60 63 67 69 75 82 90 96 99 98 100 100 99 100 100 100 100 100 100 100 98 98
40 60 49 49 31 25 26 20 20 20 22 25 24 30 21 22 43 50 54 52 62 68 71 69 72 79 84 91 98 99 99 100 99 99 99 100 100 100 100 100 100 100 100 100
49 52 51 50 30 25 33 27 23 22 20 22 41 35 55 62 80 72 69 69 74 79 77 83 87 94 95 98 99 99 99 98 99 99 99 100 100 99 100 100 100 100 100 98
44 47 45 49 44 52 26 38 43 48 41 42 50 60 67 73 77 77 76 80 82 82 84 90 95 97 98 99 98 98 98 98 99 99 99 99 99 99 99 98 98 99 100 99
33 41 50 55 45 33 36 75 75 76 53 53 65 60 66 69 72 90 78 78 86 92 95 97 98 98 98 98 98 98 98 98 98 98 99 99 100 99 100 99 99 99 98 98
25 33 52 44 56 59 85 65 49 58 78 66 64 70 77 71 92 94 88 85 93 98 98 98 97 94 93 96 97 98 97 96 98 98 99 99 99 100 99 100 99 100 99 98
50 46 52 53 62 78 70 68 60 93 86 72 69 69 100 89 86 92 92 96 98 99 98 98 86 84 78 73 72 84 91 96 96 90 93 100 98 98 98 99 99 99 98 99
56 61 64 59 76 82 70 70 80 89 80 77 97 97 88 92 94 95 96 96 97 97 90 66 60 65 62 60 66 69 77 79 80 86 83 71 89 95 91 94 96 93 92 96
79 82 95 85 91 74 72 77 80 76 82 91 92 96 90 92 94 96 97 96 97 91 52 45 50 55 58 60 61 68 55 56 65 70 76 82 74 71 84 88 92 94 96 88
68 59 73 76 79 73 73 72 77 75 89 92 93 94 92 95 96 96 96 95 95 62 45 45 50 55 60 62 64 64 65 58 62 68 69 71 79 91 84 81 84 92 95 97
65 51 62 78 74 69 72 77 79 83 85 91 94 94 95 94 96 94 95 94 77 49 46 46 52 59 65 70 77 77 73 72 68 71 76 75 75 76 97 96 90 87 88 89
70 86 81 94 71 75 82 80 81 88 91 91 88 95 96 91 95 94 95 88 59 53 47 46 49 56 68 77 79 83 88 86 81 80 80 82 80 79 77 81 99 95 85 83

GFSCGP_925_rhum_120.txt.gz
RH
36 46 55 42 42 40 43 44 44 37 29 28 28 26 22 20 20 21 20 23 35 56 55 57 56 54 55 57 56 57 57 60 55 58 60 56 62 58 56 54 59 61 72 76
42 51 41 36 36 38 39 45 45 35 28 28 28 32 27 24 24 23 19 18 47 57 56 56 63 63 62 62 60 60 62 62 62 62 63 71 66 58 55 64 51 51 55 59
44 38 31 36 39 42 40 41 39 38 32 32 38 40 38 29 26 23 23 22 45 53 55 58 62 67 64 62 61 62 63 64 64 65 63 57 52 57 62 52 51 56 53 52
50 36 39 41 43 38 46 30 33 40 41 52 41 61 42 31 30 35 55 55 54 52 54 56 59 64 68 72 64 64 64 64 66 62 66 76 86 91 87 82 79 65 60 56
55 44 47 50 46 40 48 38 46 42 50 49 45 57 42 32 31 61 64 60 62 59 59 67 68 67 69 67 66 64 64 66 68 67 72 78 84 88 90 88 86 81 72 75
51 39 42 44 38 38 36 36 40 42 47 72 44 56 51 91 86 70 61 56 57 55 56 60 60 64 69 64 68 69 71 78 79 78 76 79 87 89 91 91 93 93 93 85
51 47 37 36 45 41 47 66 93 80 72 67 49 56 92 90 86 80 78 71 56 54 62 65 65 64 68 75 76 75 78 81 79 81 82 88 91 93 94 92 92 93 94 94
58 63 36 40 43 51 62 63 92 88 80 68 46 60 93 88 85 82 82 80 78 70 68 75 72 72 68 77 82 84 87 89 84 88 90 93 95 100 99 98 96 97 97 96
55 50 34 31 34 43 48 60 53 70 74 85 67 87 94 85 93 94 95 89 90 92 84 74 71 72 75 80 84 85 91 92 93 100 100 100 100 99 99 99 100 100 99 99
40 49 49 46 29 28 43 45 69 90 94 92 66 60 95 95 91 89 93 91 87 81 77 78 78 81 84 85 84 90 94 98 100 98 98 98 98 98 99 99 99 100 100 100
48 49 57 49 49 46 39 42 42 72 81 92 92 64 72 84 86 85 76 64 61 65 68 70 73 76 81 83 87 90 98 98 97 98 96 96 97 98 100 100 100 100 100 100
57 67 80 68 45 37 38 44 48 84 77 74 75 59 76 86 81 63 59 63 68 68 72 73 75 79 82 84 92 96 96 95 99 97 96 96 98 98 100 100 100 100 100 100
57 74 78 65 59 52 59 46 42 53 62 69 81 64 66 68 70 61 63 61 65 68 76 80 80 83 81 84 93 95 92 95 96 99 100 99 98 100 100 100 100 100 100 100
61 74 66 60 60 61 57 57 43 51 84 83 67 55 43 74 71 68 70 70 73 75 74 76 76 77 82 92 94 92 97 98 100 100 100 100 100 100 100 99 97 100 100 100
59 71 71 58 49 54 87 78 58 55 52 57 50 61 80 73 73 74 71 70 75 77 77 76 78 82 86 92 94 95 99 100 99 100 100 100 100 99 99 98 98 98 99 100
54 75 54 57 46 43 55 53 42 36 34 38 31 96 77 75 76 78 76 77 81 81 81 79 79 89 95 97 98 100 100 97 97 99 99 98 98 99 99 98 97 98 98 98
66 72 74 81 42 37 49 47 37 32 69 58 71 84 83 90 85 86 92 85 82 83 85 87 88 98 99 100 100 100 98 97 100 98 98 99 97 98 98 97 97 97 97 97
73 71 77 80 50 77 66 60 59 79 83 83 89 87 86 83 88 87 85 85 85 83 88 92 98 100 100 97 93 98 93 89 90 97 98 97 95 97 97 97 97 97 97 97
62 73 81 79 83 61 65 81 85 73 86 83 84 95 92 89 84 95 86 87 96 97 99 99 99 92 81 85 90 95 98 98 89 93 94 93 85 93 96 97 97 97 97 97
56 58 75 86 78 85 71 76 68 64 87 79 81 88 92 94 100 98 93 92 97 99 99 98 98 95 86 73 80 87 90 97 98 91 86 77 76 81 89 95 100 94 96 96
70 73 72 88 84 79 80 82 68 86 78 73 79 89 92 94 96 93 97 97 96 98 98 96 90 90 83 78 75 84 83 88 93 89 76 72 80 83 82 85 87 93 95 93
60 71 86 86 88 82 79 81 91 91 93 90 97 93 95 96 97 97 97 97 98 98 98 96 88 92 89 84 82 89 87 82 85 91 90 80 85 90 89 93 90 89 91 94
85 76 90 85 86 92 87 96 90 86 88 97 96 97 94 95 96 95 96 96 98 98 98 89 91 93 94 92 90 90 83 82 84 86 93 95 88 94 92 93 95 95 93 90
84 77 93 88 95 90 88 88 87 90 98 96 91 92 90 94 95 96 96 97 97 98 97 93 90 90 88 88 85 87 86 83 85 91 88 90 99 96 99 90 84 97 96 95
86 78 89 90 89 84 81 83 90 98 97 96 94 92 95 92 96 94 96 97 97 97 94 90 90 93 99 86 84 85 87 88 84 84 85 85 84 92 88 96 84 85 94 93
97 92 94 94 85 84 89 86 91 95 97 93 92 97 98 92 95 95 96 97 96 76 82 85 88 93 95 87 81 82 82 79 81 84 82 78 79 78 83 84 83 80 81 89

GFSCGP_925_rhum_126.txt.gz
RH
48 68 78 66 51 45 46 49 54 50 40 43 45 45 40 34 32 33 34 38 85 79 71 75 77 76 71 65 56 56 58 59 54 54 54 55 61 69 65 55 54 50 48 47
48 67 57 44 44 46 48 52 54 47 41 41 43 44 39 37 44 71 76 80 81 74 72 71 75 75 70 68 71 75 67 61 60 61 64 72 68 72 79 62 59 57 53 52
64 50 42 44 46 49 50 52 52 53 44 41 50 52 41 61 68 70 78 77 77 80 80 74 72 77 74 76 73 69 68 68 68 62 60 58 57 56 62 62 68 66 63 65
47 40 40 44 45 46 55 43 45 48 62 78 42 73 54 83 79 78 80 85 84 79 71 71 73 76 80 80 77 73 75 72 72 72 71 81 95 97 88 88 83 78 77 76
56 53 54 50 45 42 50 47 54 56 66 58 55 70 64 82 87 83 78 73 70 68 67 67 69 73 77 80 78 78 78 83 85 89 84 93 99 100 100 98 95 92 91 88
53 43 46 51 46 48 43 50 55 58 61 92 68 68 62 88 79 85 83 78 76 71 69 67 72 75 78 81 82 80 82 89 93 95 98 100 100 99 98 98 97 97 99 100
57 58 50 44 52 48 52 61 91 93 88 84 54 64 51 92 74 81 83 84 80 80 85 89 91 94 96 99 96 92 95 97 98 97 96 98 97 98 96 95 95 96 97 97
61 59 54 46 56 57 65 67 88 91 84 72 61 69 62 81 80 74 72 77 85 91 92 90 88 91 88 85 86 92 96 98 99 96 95 95 95 96 95 94 94 95 98 98
64 59 38 44 44 46 60 76 61 80 74 89 75 66 77 78 83 83 80 83 85 84 89 91 84 84 83 84 90 98 96 96 96 95 92 96 94 96 97 95 98 98 98 99
52 64 44 41 31 34 49 55 75 87 92 87 75 70 73 92 89 86 88 87 76 85 85 82 79 80 82 86 93 93 93 95 94 97 99 97 99 98 99 97 97 99 99 100
48 53 55 49 51 51 50 63 69 77 80 90 88 67 66 77 82 85 81 85 81 78 84 83 82 83 83 90 90 90 95 97 99 100 98 98 97 95 97 98 95 97 98 98
52 63 75 66 50 46 42 54 54 82 80 89 85 66 58 75 78 75 76 86 80 86 88 87 84 83 88 87 88 92 97 99 99 100 99 98 96 96 97 98 97 96 96 97
65 83 91 70 56 56 59 53 53 66 72 66 85 68 90 85 83 79 85 81 85 87 87 84 84 82 83 89 91 95 98 100 99 99 99 100 100 100 99 97 95 95 97 98
74 74 73 67 58 64 72 65 52 63 90 63 61 60 86 90 86 81 84 84 85 84 78 79 81 81 89 92 95 96 99 100 99 99 99 100 100 100 98 96 96 97 100 100
81 84 78 69 62 61 58 65 66 61 57 73 61 70 63 71 81 81 85 83 81 80 76 76 80 82 87 90 86 82 79 88 92 96 98 99 98 96 96 96 96 96 98 100
71 91 69 66 56 58 68 73 77 74 68 67 67 74 82 86 85 85 78 77 81 80 80 80 89 94 97 95 98 99 84 77 75 81 87 88 93 96 96 96 96 96 95 95
83 96 96 95 65 60 86 78 73 63 59 59 74 60 89 92 86 90 87 82 83 82 83 87 96 99 98 98 100 96 86 72 76 84 86 79 85 87 82 81 88 98 96 97
96 98 96 95 74 93 61 65 69 70 73 84 91 92 89 90 93 92 86 88 85 85 87 96 97 95 91 91 92 93 86 83 82 86 87 86 88 90 87 81 87 88 100 98
71 95 97 96 92 66 60 78 79 75 63 86 96 94 93 90 83 93 84 86 91 94 96 98 100 96 91 89 91 92 92 88 91 92 91 93 93 94 97 94 93 92 98 99
92 81 93 95 94 91 68 77 66 61 79 86 91 86 92 88 99 96 97 92 98 97 98 98 96 94 94 91 91 93 99 92 94 91 87 92 93 91 99 100 96 91 94 100
98 98 94 95 89 76 60 80 65 72 69 83 90 90 88 95 91 92 95 98 96 98 98 97 97 96 97 94 92 96 97 100 93 78 80 85 84 89 95 100 98 90 91 96
84 94 96 95 95 90 82 78 77 82 96 88 94 97 92 96 98 96 93 97 98 98 98 97 97 97 97 94 91 96 96 93 89 85 76 78 86 90 95 100 99 95 93 90
85 85 88 79 82 91 91 91 92 85 97 91 95 97 94 95 94 94 95 96 97 98 98 97 96 97 96 94 93 94 92 82 85 92 96 85 77 87 93 99 98 95 93 92
85 73 81 75 91 93 96 94 92 89 93 98 96 96 89 94 94 95 96 96 96 98 98 96 96 96 99 94 94 90 84 79 83 91 92 92 88 85 94 92 92 95 92 91
85 77 86 90 92 89 90 86 96 93 92 97 95 93 94 92 95 92 95 96 96 98 97 96 93 94 98 92 86 80 80 81 80 80 86 92 94 87 86 94 92 93 88 84
92 89 88 86 82 78 90 94 90 89 88 93 95 98 94 88 94 92 96 97 97 97 96 90 92 94 92 86 78 72 71 70 77 89 92 93 92 93 87 78 81 93 88 84

GFSCGP_925_rhum_132.txt.gz
RH
35 30 27 17 22 28 29 28 27 22 20 26 23 22 20 20 20 26 34 42 48 48 45 45 45 46 44 48 49 51 55 59 53 48 47 46 50 56 56 57 67 70 72 75
39 32 23 31 38 38 35 34 28 20 23 28 24 25 20 31 34 44 43 45 47 46 44 43 46 51 54 56 57 57 58 61 61 54 54 56 54 53 57 55 61 68 74 79
26 22 30 41 37 38 30 32 25 28 24 24 28 26 28 42 45 49 50 48 48 47 45 42 48 56 61 65 66 64 66 65 69 68 57 55 49 47 49 54 55 66 74 78
29 21 33 32 28 26 30 24 29 30 34 32 33 26 25 34 41 49 53 51 50 48 43 42 47 54 61 67 69 68 70 69 69 71 66 68 59 56 60 60 61 68 72 76
22 34 36 36 29 28 29 32 34 38 39 37 33 39 21 32 36 41 49 51 51 46 41 46 56 63 61 61 64 67 65 68 71 72 73 68 67 65 64 65 69 67 69 72
22 32 32 25 29 30 34 38 36 38 36 39 26 31 17 33 31 29 42 48 48 46 48 57 62 57 54 56 62 63 63 64 69 73 74 76 75 74 71 73 73 70 71 71
29 29 26 30 34 35 36 41 38 36 43 33 35 36 24 28 31 32 40 43 48 50 57 61 58 55 54 58 61 60 64 66 72 77 77 75 78 79 75 80 78 80 76 76
27 28 33 34 32 29 37 35 40 43 32 29 36 37 25 30 33 38 39 42 48 56 66 61 58 56 54 59 64 65 67 70 74 79 80 81 83 83 80 84 87 84 84 85
36 33 29 33 34 30 40 47 30 43 36 46 30 23 45 51 51 54 51 50 53 60 71 59 56 56 56 59 68 74 76 75 81 86 86 84 84 86 85 86 86 86 88 89
34 29 16 24 32 33 37 30 46 48 57 44 26 24 29 50 51 56 56 54 52 63 70 61 54 56 57 61 65 75 80 82 84 86 86 84 85 86 86 86 90 91 92 91
33 39 26 38 34 26 38 44 46 42 44 55 45 28 28 26 29 40 44 48 49 58 60 59 53 56 60 62 67 75 82 86 87 87 85 86 88 88 87 89 90 93 91 91
25 28 36 25 25 35 36 39 38 66 52 68 59 42 30 32 32 33 36 45 45 59 56 56 56 56 59 63 64 69 77 85 92 90 89 89 90 92 92 93 93 94 93 90
36 31 38 22 27 42 51 44 46 68 93 80 71 50 40 43 42 42 46 47 53 57 57 56 55 57 60 58 57 59 69 77 83 88 88 89 92 95 98 99 99 99 94 91
56 50 47 35 24 32 52 45 42 56 74 56 46 36 27 40 45 49 49 52 54 58 58 52 52 58 61 57 57 51 53 56 64 72 77 81 84 90 95 98 100 100 98 96
46 56 44 38 35 38 41 41 37 41 44 61 48 40 30 27 32 41 47 54 57 58 57 55 59 60 57 57 50 50 58 60 63 68 77 88 86 85 86 87 92 93 92 96
51 59 52 50 38 38 42 37 36 35 39 40 38 39 26 34 43 54 55 58 59 59 59 62 60 59 61 53 50 59 71 75 75 79 92 97 94 95 95 94 93 87 85 88
50 61 62 74 42 55 60 41 34 33 28 36 61 42 32 43 50 50 56 56 60 64 68 68 68 74 70 70 65 72 81 78 85 90 93 94 95 95 94 94 92 93 93 91
53 54 63 71 54 89 32 33 39 41 37 37 38 38 44 44 56 56 54 59 66 70 74 76 79 80 84 81 81 82 84 90 90 92 94 94 95 94 92 94 92 91 92 90
44 54 73 77 52 38 34 45 73 71 40 33 43 40 58 60 64 82 66 64 76 88 92 87 89 92 96 95 92 88 84 83 86 91 94 96 97 94 90 90 89 90 86 85
43 44 69 57 62 62 52 48 44 43 61 34 43 54 69 67 74 78 77 79 90 91 95 95 94 96 98 96 97 90 89 87 89 93 95 96 95 92 91 89 89 89 88 86
72 91 90 79 78 46 29 49 42 67 57 54 50 58 68 72 75 100 96 92 90 90 92 94 97 94 99 99 91 88 88 90 96 95 96 97 93 92 91 90 90 87 86 84
42 63 72 84 91 86 52 55 50 64 63 60 60 66 70 97 97 94 90 89 88 88 87 83 88 98 100 97 90 86 90 96 93 91 94 96 93 91 90 87 86 84 79 78
81 65 67 63 54 71 56 75 63 57 62 66 69 73 74 95 95 90 91 86 85 88 83 77 81 89 87 79 85 87 92 88 89 85 90 90 90 88 85 81 78 73 74 71
53 50 69 70 69 64 66 66 62 57 60 64 67 76 86 94 88 88 89 91 85 81 82 78 80 82 76 74 73 75 80 85 82 76 73 69 76 80 76 67 69 72 74 72
50 57 56 66 78 87 84 64 64 71 71 77 78 83 90 91 89 84 89 83 77 78 80 76 73 73 69 69 70 70 64 60 59 60 60 59 58 61 73 78 77 74 80 81
62 68 76 69 60 66 55 60 66 79 83 76 83 90 86 80 86 81 82 78 76 77 76 74 72 67 66 68 69 71 66 62 60 61 62 64 62 64 64 65 75 87 86 88